Date,TemperatureHighF,TemperatureAvgF,TemperatureLowF,DewpointHighF,DewpointAvgF,DewpointLowF,HumidityHigh,HumidityAvg,HumidityLow,PressureMaxIn,PressureMinIn,WindSpeedMaxMPH,WindSpeedAvgMPH,GustSpeedMaxMPH,PrecipitationSumIn
2013-9-1,89.0,78.9,71.0,60.0,57.0,54.0,57,47,34,30.09,29.99,8,3,14,0.00
2013-9-2,93.0,82.9,72.0,60.0,53.8,49.0,63,38,23,30.13,29.98,14,6,22,0.00
2013-9-3,91.0,80.0,71.0,54.0,50.6,48.0,47,36,25,30.15,30.04,6,3,16,0.00
2013-9-4,96.0,82.8,69.0,56.0,51.5,49.0,52,35,20,30.19,30.04,5,3,12,0.00
2013-9-5,97.0,83.1,72.0,54.0,51.0,46.0,50,34,19,30.18,30.04,6,3,16,0.00
2013-9-6,96.0,83.3,72.0,51.0,46.4,42.0,42,28,15,30.18,29.98,6,4,14,0.00
2013-9-7,96.0,81.9,69.0,49.0,42.9,-99.9,42,27,15,30.09,29.91,5,3,14,0.00
2013-9-8,80.0,74.8,67.0,61.0,55.5,51.0,75,51,36,30.06,29.99,6,3,11,0.01
2013-9-9,64.0,62.8,62.0,63.0,62.0,61.0,100,97,93,30.02,29.95,3,1,9,0.39
2013-9-10,75.0,66.1,61.0,63.0,62.1,61.0,100,88,67,30.04,29.97,7,4,13,0.35
2013-9-11,79.0,69.3,62.0,64.0,61.2,58.0,96,77,50,30.13,30.04,6,2,11,0.00
2013-9-12,81.0,69.0,61.0,62.0,60.0,56.0,95,76,42,30.13,29.99,8,3,14,0.13
2013-9-13,78.0,66.4,59.0,62.0,59.6,56.0,97,80,48,30.03,29.87,6,2,21,0.43
2013-9-14,68.0,62.4,60.0,62.0,56.1,-99.9,95,83,73,29.99,29.92,12,4,20,0.29
2013-9-15,79.0,66.0,56.0,59.0,56.6,54.0,97,74,42,30.07,30.00,4,2,10,0.00
2013-9-16,83.0,69.4,59.0,58.0,55.2,50.0,87,63,30,30.17,30.02,4,3,9,0.00
2013-9-17,83.0,71.4,62.0,59.0,55.5,52.0,80,59,40,30.04,29.80,13,5,20,0.02
2013-9-18,77.0,73.8,68.0,54.0,48.3,38.0,50,41,26,29.88,29.81,11,5,20,0.00
2013-9-19,79.0,67.2,54.0,44.0,32.8,24.0,61,31,13,30.08,29.90,6,3,10,0.00
2013-9-20,83.0,63.5,49.0,42.0,34.3,29.0,60,36,15,30.13,29.95,5,3,8,0.00
2013-9-21,85.0,69.6,57.0,47.0,40.8,-99.9,58,38,23,30.00,29.75,13,4,20,0.00
2013-9-22,76.0,66.4,53.0,55.0,50.4,47.0,99,60,35,29.80,29.62,15,8,26,0.03
2013-9-23,70.0,58.4,50.0,47.0,44.1,37.0,88,62,30,30.10,29.82,5,3,14,0.00
2013-9-24,60.0,53.2,48.0,47.0,44.5,42.0,90,72,61,30.17,30.12,5,2,8,0.00
2013-9-25,82.0,76.2,68.0,37.0,31.3,27.0,29,20,13,29.72,29.50,16,11,30,0.00
2013-9-26,78.0,71.2,64.0,40.0,32.8,27.0,37,25,15,29.67,29.52,15,10,27,0.00
2013-9-27,66.0,56.9,48.0,42.0,31.4,24.0,61,38,26,30.14,29.67,9,5,21,0.03
2013-9-28,65.0,49.7,39.0,30.0,27.5,21.0,65,45,18,30.29,30.15,5,3,10,0.00
2013-9-29,77.0,59.6,41.0,32.0,28.0,23.0,65,35,13,30.22,30.01,5,3,11,0.00
2013-9-30,81.0,65.1,52.0,34.0,29.9,26.0,47,28,14,30.05,29.88,5,3,9,0.00